QPF
0.01 0.00 0.01 0.00 0.00 0.01 0.01 0.02 0.02 0.02 0.01 0.00 0.01 0.02 0.03 0.05 0.05 0.07 0.02 0.02 0.02 0.00 0.00 0.02 0.02 0.01 0.00 0.00 0.00 0.01 0.02 0.01 0.03 0.04 0.02 0.01 0.00 0.00 0.00 0.00 0.00 0.00 0.00 0.00 0.00 0.00 0.00 0.00 0.00 0.00 0.00 0.00 0.00 0.00
0.01 0.01 0.01 0.01 0.00 0.01 0.01 0.01 0.02 0.02 0.02 0.00 0.00 0.01 0.01 0.03 0.05 0.07 0.01 0.02 0.02 0.00 0.00 0.01 0.01 0.00 0.00 0.00 0.00 0.00 0.01 0.01 0.00 0.02 0.01 0.00 0.00 0.00 0.00 0.00 0.00 0.01 0.00 0.00 0.00 0.00 0.00 0.00 0.00 0.00 0.00 0.00 0.00 0.00
0.02 0.02 0.02 0.01 0.01 0.01 0.01 0.01 0.02 0.02 0.01 0.00 0.00 0.01 0.01 0.04 0.07 0.06 0.01 0.01 0.02 0.00 0.00 0.00 0.00 0.00 0.00 0.00 0.00 0.00 0.00 0.01 0.00 0.00 0.00 0.00 0.00 0.00 0.00 0.00 0.00 0.00 0.00 0.00 0.00 0.00 0.00 0.00 0.00 0.00 0.00 0.00 0.00 0.00
0.01 0.01 0.01 0.01 0.01 0.01 0.01 0.01 0.02 0.02 0.01 0.00 0.00 0.01 0.01 0.04 0.06 0.05 0.01 0.01 0.00 0.00 0.00 0.00 0.00 0.00 0.00 0.00 0.00 0.00 0.01 0.00 0.00 0.01 0.02 0.00 0.00 0.00 0.00 0.00 0.00 0.00 0.00 0.00 0.00 0.00 0.00 0.00 0.00 0.00 0.00 0.00 0.00 0.00
0.01 0.01 0.02 0.02 0.01 0.01 0.01 0.01 0.01 0.01 0.01 0.00 0.00 0.01 0.01 0.02 0.02 0.01 0.00 0.00 0.00 0.00 0.00 0.00 0.00 0.00 0.00 0.00 0.00 0.00 0.00 0.00 0.00 0.00 0.01 0.00 0.00 0.00 0.00 0.00 0.00 0.00 0.00 0.00 0.00 0.00 0.00 0.00 0.00 0.00 0.00 0.00 0.00 0.00
0.02 0.02 0.02 0.02 0.01 0.01 0.01 0.01 0.02 0.01 0.00 0.00 0.00 0.01 0.02 0.02 0.01 0.00 0.00 0.00 0.01 0.00 0.00 0.00 0.00 0.00 0.00 0.00 0.00 0.00 0.00 0.00 0.00 0.00 0.00 0.00 0.00 0.00 0.00 0.00 0.00 0.00 0.00 0.00 0.00 0.00 0.00 0.00 0.00 0.00 0.00 0.00 0.00 0.00
0.02 0.02 0.02 0.02 0.01 0.01 0.02 0.02 0.02 0.00 0.00 0.00 0.00 0.01 0.01 0.02 0.01 0.00 0.00 0.00 0.00 0.00 0.00 0.00 0.00 0.00 0.00 0.00 0.00 0.00 0.00 0.00 0.00 0.00 0.00 0.00 0.00 0.00 0.00 0.00 0.00 0.00 0.00 0.00 0.00 0.00 0.00 0.00 0.00 0.00 0.00 0.00 0.00 0.00
0.02 0.03 0.02 0.01 0.01 0.02 0.02 0.02 0.01 0.00 0.00 0.00 0.01 0.01 0.01 0.01 0.01 0.00 0.00 0.00 0.00 0.00 0.00 0.00 0.00 0.00 0.00 0.00 0.00 0.00 0.00 0.00 0.00 0.00 0.00 0.00 0.00 0.00 0.00 0.00 0.00 0.00 0.00 0.00 0.00 0.00 0.00 0.00 0.00 0.00 0.00 0.00 0.00 0.00
0.02 0.01 0.01 0.00 0.00 0.01 0.01 0.01 0.01 0.01 0.00 0.01 0.02 0.03 0.01 0.00 0.00 0.00 0.00 0.00 0.00 0.00 0.00 0.00 0.00 0.00 0.00 0.00 0.00 0.00 0.00 0.00 0.00 0.00 0.00 0.00 0.00 0.00 0.00 0.00 0.00 0.00 0.00 0.00 0.00 0.00 0.00 0.00 0.00 0.00 0.00 0.00 0.00 0.00
0.02 0.01 0.00 0.00 0.00 0.01 0.01 0.01 0.00 0.01 0.01 0.01 0.01 0.00 0.00 0.00 0.00 0.00 0.00 0.00 0.00 0.00 0.00 0.00 0.00 0.00 0.00 0.00 0.00 0.00 0.00 0.00 0.00 0.00 0.00 0.00 0.00 0.00 0.00 0.00 0.00 0.00 0.00 0.00 0.00 0.00 0.00 0.00 0.00 0.00 0.00 0.00 0.00 0.00
0.01 0.01 0.01 0.00 0.00 0.01 0.01 0.00 0.00 0.00 0.00 0.00 0.00 0.00 0.00 0.00 0.00 0.00 0.00 0.00 0.00 0.00 0.00 0.00 0.00 0.00 0.00 0.00 0.00 0.00 0.00 0.00 0.00 0.00 0.00 0.00 0.00 0.00 0.00 0.00 0.00 0.00 0.00 0.00 0.00 0.00 0.00 0.00 0.00 0.00 0.00 0.00 0.00 0.00
0.01 0.02 0.01 0.01 0.01 0.01 0.00 0.00 0.00 0.01 0.00 0.00 0.00 0.00 0.00 0.00 0.00 0.00 0.00 0.00 0.00 0.00 0.00 0.00 0.00 0.00 0.00 0.00 0.00 0.00 0.00 0.00 0.00 0.00 0.00 0.00 0.00 0.00 0.00 0.00 0.00 0.00 0.00 0.00 0.00 0.00 0.00 0.00 0.00 0.00 0.00 0.00 0.00 0.00
0.00 0.00 0.00 0.00 0.01 0.00 0.00 0.00 0.00 0.01 0.01 0.00 0.00 0.00 0.00 0.00 0.00 0.00 0.00 0.00 0.00 0.00 0.00 0.00 0.00 0.00 0.00 0.00 0.00 0.00 0.00 0.00 0.00 0.00 0.00 0.00 0.00 0.00 0.00 0.00 0.00 0.00 0.00 0.00 0.00 0.00 0.00 0.00 0.00 0.00 0.00 0.00 0.00 0.00
0.00 0.00 0.00 0.00 0.00 0.00 0.00 0.00 0.00 0.00 0.00 0.00 0.00 0.00 0.00 0.00 0.00 0.00 0.00 0.00 0.00 0.00 0.00 0.00 0.00 0.00 0.00 0.00 0.00 0.00 0.00 0.00 0.00 0.00 0.00 0.00 0.00 0.00 0.00 0.00 0.00 0.00 0.00 0.00 0.00 0.00 0.00 0.00 0.00 0.00 0.00 0.00 0.00 0.00
0.00 0.00 0.00 0.01 0.00 0.00 0.00 0.00 0.00 0.00 0.00 0.00 0.00 0.00 0.00 0.00 0.00 0.00 0.00 0.00 0.00 0.00 0.00 0.00 0.00 0.00 0.00 0.00 0.00 0.00 0.00 0.00 0.00 0.00 0.00 0.00 0.00 0.00 0.00 0.00 0.00 0.00 0.00 0.00 0.00 0.00 0.00 0.00 0.00 0.00 0.00 0.00 0.00 0.00
0.00 0.00 0.00 0.01 0.00 0.00 0.00 0.00 0.00 0.00 0.00 0.00 0.00 0.00 0.00 0.00 0.00 0.00 0.00 0.00 0.00 0.00 0.00 0.00 0.00 0.00 0.00 0.00 0.00 0.00 0.00 0.00 0.00 0.00 0.00 0.00 0.00 0.00 0.00 0.00 0.00 0.00 0.00 0.00 0.00 0.00 0.00 0.00 0.00 0.00 0.00 0.00 0.00 0.00
0.01 0.00 0.00 0.00 0.00 0.00 0.00 0.00 0.00 0.00 0.00 0.00 0.00 0.00 0.00 0.00 0.00 0.00 0.00 0.00 0.00 0.00 0.00 0.00 0.00 0.00 0.00 0.00 0.00 0.00 0.00 0.00 0.00 0.00 0.00 0.00 0.00 0.00 0.00 0.00 0.00 0.00 0.00 0.00 0.00 0.00 0.00 0.00 0.00 0.00 0.00 0.00 0.00 0.00
0.00 0.00 0.00 0.00 0.00 0.00 0.00 0.00 0.00 0.00 0.00 0.00 0.00 0.00 0.00 0.00 0.00 0.00 0.00 0.00 0.00 0.00 0.00 0.00 0.00 0.00 0.00 0.00 0.00 0.00 0.00 0.00 0.00 0.00 0.00 0.00 0.00 0.00 0.00 0.00 0.00 0.00 0.00 0.00 0.00 0.00 0.00 0.00 0.00 0.00 0.00 0.00 0.00 0.00
0.00 0.00 0.00 0.00 0.00 0.00 0.00 0.00 0.00 0.00 0.00 0.00 0.00 0.00 0.00 0.00 0.00 0.00 0.00 0.00 0.00 0.00 0.00 0.00 0.00 0.00 0.00 0.00 0.00 0.00 0.00 0.00 0.00 0.00 0.00 0.00 0.00 0.00 0.00 0.00 0.00 0.00 0.00 0.00 0.00 0.00 0.00 0.00 0.00 0.00 0.00 0.00 0.00 0.00
0.00 0.00 0.00 0.00 0.00 0.00 0.00 0.00 0.00 0.00 0.00 0.00 0.00 0.00 0.00 0.00 0.00 0.00 0.00 0.00 0.00 0.00 0.00 0.00 0.00 0.00 0.00 0.00 0.00 0.00 0.00 0.00 0.00 0.00 0.00 0.00 0.00 0.00 0.00 0.00 0.00 0.00 0.00 0.00 0.00 0.00 0.00 0.00 0.00 0.00 0.00 0.00 0.00 0.00
0.00 0.00 0.00 0.00 0.00 0.00 0.00 0.00 0.00 0.00 0.00 0.00 0.00 0.00 0.00 0.00 0.00 0.00 0.00 0.00 0.00 0.00 0.00 0.00 0.00 0.00 0.00 0.00 0.00 0.00 0.00 0.00 0.00 0.00 0.00 0.00 0.00 0.00 0.00 0.00 0.00 0.00 0.00 0.00 0.00 0.00 0.00 0.00 0.00 0.00 0.00 0.00 0.00 0.00
0.00 0.00 0.00 0.00 0.00 0.00 0.00 0.00 0.00 0.00 0.00 0.00 0.00 0.00 0.00 0.00 0.00 0.00 0.00 0.00 0.00 0.00 0.00 0.00 0.00 0.00 0.00 0.00 0.00 0.00 0.00 0.00 0.00 0.00 0.00 0.00 0.00 0.00 0.00 0.00 0.00 0.00 0.00 0.00 0.00 0.00 0.00 0.00 0.00 0.00 0.00 0.00 0.00 0.00
0.00 0.00 0.00 0.00 0.00 0.00 0.00 0.00 0.00 0.00 0.00 0.00 0.00 0.00 0.00 0.00 0.00 0.00 0.00 0.00 0.00 0.00 0.00 0.00 0.00 0.00 0.00 0.00 0.00 0.00 0.00 0.00 0.00 0.00 0.00 0.00 0.00 0.00 0.00 0.00 0.00 0.00 0.00 0.00 0.00 0.00 0.00 0.00 0.00 0.00 0.00 0.00 0.00 0.00
0.00 0.00 0.00 0.00 0.00 0.00 0.00 0.00 0.00 0.00 0.00 0.00 0.00 0.00 0.00 0.00 0.00 0.00 0.00 0.00 0.00 0.00 0.00 0.00 0.00 0.00 0.00 0.00 0.00 0.00 0.00 0.00 0.00 0.00 0.00 0.00 0.00 0.00 0.00 0.00 0.00 0.00 0.00 0.00 0.00 0.00 0.00 0.00 0.00 0.00 0.00 0.00 0.00 0.00
0.00 0.00 0.00 0.00 0.00 0.00 0.00 0.00 0.00 0.00 0.00 0.00 0.00 0.00 0.00 0.00 0.00 0.00 0.00 0.00 0.00 0.00 0.00 0.00 0.00 0.00 0.00 0.00 0.00 0.00 0.00 0.00 0.00 0.00 0.00 0.00 0.00 0.00 0.00 0.00 0.00 0.00 0.00 0.00 0.00 0.00 0.00 0.00 0.00 0.00 0.00 0.00 0.00 0.00
0.00 0.00 0.00 0.00 0.00 0.00 0.00 0.00 0.00 0.00 0.00 0.00 0.00 0.00 0.00 0.00 0.00 0.00 0.00 0.00 0.00 0.00 0.00 0.00 0.00 0.00 0.00 0.00 0.00 0.00 0.00 0.00 0.00 0.00 0.00 0.00 0.00 0.00 0.00 0.00 0.00 0.00 0.00 0.00 0.00 0.00 0.00 0.00 0.00 0.00 0.00 0.00 0.00 0.00
0.00 0.00 0.00 0.00 0.00 0.00 0.00 0.00 0.00 0.00 0.00 0.00 0.00 0.00 0.00 0.00 0.00 0.00 0.00 0.00 0.00 0.00 0.00 0.00 0.00 0.00 0.00 0.00 0.00 0.00 0.00 0.00 0.00 0.00 0.00 0.00 0.00 0.00 0.00 0.00 0.00 0.00 0.00 0.00 0.00 0.00 0.00 0.00 0.00 0.00 0.00 0.00 0.00 0.00
0.00 0.00 0.00 0.00 0.00 0.00 0.00 0.00 0.00 0.00 0.00 0.00 0.00 0.00 0.00 0.00 0.00 0.00 0.00 0.00 0.00 0.00 0.00 0.00 0.00 0.00 0.00 0.00 0.00 0.00 0.00 0.00 0.00 0.00 0.00 0.00 0.00 0.00 0.00 0.00 0.00 0.00 0.00 0.00 0.00 0.00 0.00 0.00 0.00 0.00 0.00 0.00 0.00 0.00
0.00 0.00 0.00 0.00 0.00 0.00 0.00 0.00 0.00 0.00 0.00 0.00 0.00 0.00 0.00 0.00 0.00 0.00 0.00 0.00 0.00 0.00 0.00 0.00 0.00 0.00 0.00 0.00 0.00 0.00 0.00 0.00 0.00 0.00 0.00 0.00 0.00 0.00 0.00 0.00 0.00 0.00 0.00 0.00 0.00 0.00 0.00 0.00 0.00 0.00 0.00 0.00 0.00 0.00
0.00 0.00 0.00 0.00 0.00 0.00 0.00 0.00 0.00 0.00 0.00 0.00 0.00 0.00 0.00 0.00 0.00 0.00 0.00 0.00 0.00 0.00 0.00 0.00 0.00 0.00 0.00 0.00 0.00 0.00 0.00 0.00 0.00 0.00 0.00 0.00 0.00 0.00 0.00 0.00 0.00 0.00 0.00 0.00 0.00 0.00 0.00 0.00 0.00 0.00 0.00 0.00 0.00 0.00
0.00 0.00 0.00 0.00 0.00 0.00 0.00 0.00 0.00 0.00 0.00 0.00 0.00 0.00 0.00 0.00 0.00 0.00 0.00 0.00 0.00 0.00 0.00 0.00 0.00 0.00 0.00 0.00 0.00 0.00 0.00 0.00 0.00 0.00 0.00 0.00 0.00 0.00 0.00 0.00 0.00 0.00 0.00 0.00 0.00 0.00 0.00 0.00 0.00 0.00 0.00 0.00 0.00 0.00
0.00 0.00 0.00 0.00 0.00 0.00 0.00 0.00 0.00 0.00 0.00 0.00 0.00 0.00 0.00 0.00 0.00 0.00 0.00 0.00 0.00 0.00 0.00 0.00 0.00 0.00 0.00 0.00 0.00 0.00 0.00 0.00 0.00 0.00 0.00 0.00 0.00 0.00 0.00 0.00 0.00 0.00 0.00 0.00 0.00 0.00 0.00 0.00 0.00 0.00 0.00 0.00 0.00 0.00
0.00 0.00 0.00 0.00 0.00 0.00 0.00 0.00 0.00 0.00 0.00 0.00 0.00 0.00 0.00 0.00 0.00 0.00 0.00 0.00 0.00 0.00 0.00 0.00 0.00 0.00 0.00 0.00 0.00 0.00 0.00 0.00 0.00 0.00 0.00 0.00 0.00 0.00 0.00 0.00 0.00 0.00 0.00 0.00 0.00 0.00 0.00 0.00 0.00 0.00 0.00 0.00 0.00 0.00
MSLP
1019.86 1019.55 1019.35 1019.19 1018.85 1018.59 1018.33 1017.97 1017.60 1017.16 1016.72 1016.42 1015.83 1015.21 1014.66 1014.07 1013.45 1013.64 1013.29 1013.65 1014.17 1013.15 1012.28 1011.84 1010.85 1010.48 1010.01 1009.95 1009.47 1008.17 1007.64 1007.21 1007.61 1006.78 1005.87 1005.24 1004.67 1004.48 1004.35 1004.11 1004.37 1004.83 1005.48 1005.95 1006.21 1006.17 1006.03 1005.37 1005.30 1005.25 1005.16 1005.36 1005.67 1006.58
1019.04 1018.63 1018.51 1018.24 1017.98 1017.69 1017.49 1017.14 1016.76 1016.31 1016.18 1015.66 1015.07 1014.57 1014.00 1013.51 1012.77 1012.62 1012.53 1012.47 1012.81 1012.72 1011.83 1011.01 1010.29 1010.03 1009.85 1010.14 1010.03 1008.96 1007.60 1006.25 1005.69 1006.11 1004.84 1004.42 1004.27 1004.01 1003.83 1003.98 1004.32 1004.88 1004.69 1005.32 1006.47 1006.22 1006.39 1006.47 1006.27 1005.83 1006.20 1005.70 1006.96 1007.71
1018.15 1017.91 1017.53 1017.33 1017.09 1016.78 1016.53 1016.30 1015.91 1015.45 1015.41 1014.79 1014.30 1013.83 1013.53 1012.91 1012.04 1011.62 1011.63 1011.85 1012.23 1011.95 1011.38 1010.66 1009.77 1009.43 1009.63 1009.67 1009.74 1009.58 1008.12 1006.91 1006.00 1004.81 1004.53 1004.20 1004.01 1004.18 1003.56 1003.79 1004.29 1005.01 1005.13 1005.56 1006.36 1007.32 1007.40 1007.27 1007.07 1006.86 1007.20 1007.07 1007.52 1008.37
1017.26 1016.94 1016.59 1016.27 1016.11 1015.84 1015.64 1015.42 1015.04 1014.63 1014.38 1013.98 1013.59 1013.13 1012.88 1012.16 1011.31 1010.67 1010.64 1010.79 1011.19 1011.18 1010.70 1009.57 1009.28 1009.31 1009.28 1009.35 1008.96 1008.49 1007.86 1007.39 1006.64 1005.37 1004.80 1004.74 1004.56 1004.66 1004.27 1003.73 1004.24 1004.90 1005.27 1005.83 1006.81 1007.54 1008.31 1008.35 1008.19 1008.00 1008.22 1008.57 1009.03 1009.65
1016.26 1015.87 1015.75 1015.45 1015.13 1014.92 1014.72 1014.48 1014.16 1013.80 1013.59 1013.21 1012.83 1012.41 1012.19 1011.49 1010.67 1010.46 1009.97 1009.78 1010.29 1010.62 1010.16 1009.63 1009.28 1009.05 1008.97 1008.75 1008.13 1007.43 1007.25 1006.91 1006.17 1005.50 1005.35 1005.99 1005.97 1005.60 1005.29 1004.83 1005.33 1005.42 1005.24 1005.35 1006.11 1006.68 1007.31 1008.93 1009.12 1008.81 1009.20 1009.59 1010.09 1010.59
1015.19 1014.87 1014.66 1014.55 1014.24 1013.99 1013.80 1013.62 1013.33 1013.10 1012.78 1012.48 1012.08 1011.66 1011.28 1010.69 1010.06 1010.03 1009.78 1008.97 1009.35 1010.07 1010.41 1009.87 1009.48 1009.10 1008.83 1008.47 1008.01 1007.28 1007.05 1007.25 1006.89 1006.37 1006.87 1007.04 1006.81 1006.44 1006.11 1006.15 1006.33 1005.96 1005.55 1005.08 1006.31 1007.19 1007.54 1008.84 1009.68 1009.89 1009.94 1010.41 1011.07 1011.33
1014.33 1014.00 1013.91 1013.66 1013.35 1013.17 1013.07 1012.91 1012.67 1012.32 1012.08 1011.75 1011.36 1010.86 1010.27 1009.91 1009.72 1009.82 1009.43 1008.98 1008.73 1009.70 1009.73 1009.45 1009.27 1009.27 1008.93 1008.42 1007.85 1007.61 1007.33 1007.21 1007.00 1007.54 1007.69 1007.65 1007.72 1007.39 1006.71 1006.94 1007.35 1006.68 1006.09 1006.55 1007.34 1007.64 1009.15 1009.57 1010.14 1010.59 1010.89 1011.47 1011.80 1012.25
1013.31 1012.96 1012.93 1012.82 1012.61 1012.46 1012.37 1012.18 1011.89 1011.63 1011.40 1010.99 1010.45 1009.93 1009.43 1009.05 1008.87 1008.91 1008.95 1008.37 1008.51 1009.04 1009.19 1009.10 1009.19 1009.23 1009.10 1008.73 1008.05 1007.97 1007.65 1007.44 1007.89 1008.69 1008.86 1008.48 1008.25 1008.11 1008.27 1008.35 1007.98 1007.50 1007.39 1007.79 1008.39 1008.44 1009.03 1009.95 1010.71 1011.25 1011.70 1012.01 1012.38 1012.86
1012.44 1012.03 1011.91 1011.95 1011.83 1011.77 1011.73 1011.54 1011.26 1011.05 1010.69 1010.20 1009.67 1009.19 1009.03 1009.07 1008.86 1008.44 1008.31 1008.33 1008.60 1009.18 1009.03 1008.90 1008.54 1008.92 1008.97 1008.82 1008.55 1008.01 1007.94 1008.23 1008.88 1008.99 1009.11 1008.94 1008.80 1009.08 1009.45 1009.17 1008.74 1008.74 1008.56 1009.09 1009.44 1009.71 1010.19 1010.61 1011.32 1011.83 1012.13 1012.47 1012.68 1013.17
1011.52 1011.37 1011.39 1011.28 1011.24 1011.19 1011.13 1010.97 1010.73 1010.46 1010.08 1009.61 1009.29 1009.17 1008.83 1008.36 1007.95 1007.92 1008.51 1008.76 1008.87 1008.69 1008.89 1008.65 1008.63 1008.49 1008.64 1008.74 1008.73 1008.80 1009.01 1009.24 1009.26 1009.76 1009.45 1009.31 1009.83 1010.01 1009.84 1009.63 1009.43 1009.71 1009.63 1009.57 1009.93 1010.65 1011.03 1011.39 1011.71 1012.07 1012.29 1012.62 1012.88 1013.19
1010.99 1010.85 1010.75 1010.69 1010.66 1010.57 1010.46 1010.31 1010.15 1010.00 1009.36 1009.33 1009.21 1008.77 1008.14 1007.86 1008.14 1008.17 1008.33 1008.43 1008.56 1008.51 1008.16 1008.18 1008.40 1008.44 1008.53 1008.40 1008.63 1008.87 1008.74 1008.92 1009.23 1010.02 1009.53 1010.19 1010.38 1010.46 1010.45 1010.15 1010.16 1009.92 1009.99 1010.24 1010.43 1010.66 1011.00 1011.15 1011.69 1012.21 1012.60 1012.90 1013.21 1013.51
1010.42 1010.35 1010.25 1010.15 1010.09 1009.97 1009.82 1009.71 1009.67 1009.77 1009.33 1008.92 1008.43 1008.18 1008.15 1008.25 1008.27 1008.34 1008.38 1008.56 1008.28 1007.79 1007.82 1007.74 1007.95 1008.02 1008.42 1008.32 1008.35 1008.99 1009.06 1009.13 1009.67 1009.84 1009.36 1010.25 1010.66 1010.69 1010.71 1010.59 1010.75 1010.68 1010.67 1010.92 1011.28 1011.47 1011.71 1011.95 1012.29 1012.64 1012.97 1013.22 1013.41 1013.62
1010.07 1009.97 1009.75 1009.61 1009.42 1009.16 1009.03 1009.01 1009.19 1009.26 1008.97 1008.46 1008.18 1008.03 1008.03 1008.61 1008.65 1008.27 1008.29 1008.03 1007.71 1007.40 1007.51 1007.63 1007.91 1007.85 1008.11 1008.07 1008.56 1008.82 1009.30 1010.13 1010.33 1010.40 1010.86 1010.97 1011.01 1011.03 1010.93 1010.96 1011.04 1011.13 1011.20 1011.29 1011.56 1011.79 1012.07 1012.31 1012.64 1012.90 1013.01 1013.16 1013.39 1013.59
1009.69 1009.56 1009.26 1009.01 1008.64 1008.32 1008.15 1008.32 1008.37 1008.45 1008.89 1008.21 1007.66 1007.84 1007.78 1007.98 1007.51 1006.93 1006.60 1006.39 1006.38 1006.34 1006.84 1007.16 1007.95 1008.15 1008.59 1008.81 1009.35 1009.79 1010.71 1010.70 1010.91 1011.09 1011.17 1011.06 1010.85 1010.98 1011.21 1011.36 1011.36 1011.56 1011.71 1011.87 1012.01 1012.20 1012.41 1012.68 1012.79 1012.91 1012.99 1013.20 1013.49 1013.53
1009.29 1009.02 1008.77 1008.48 1007.97 1007.69 1007.38 1006.59 1007.01 1008.00 1008.05 1007.57 1007.26 1007.12 1007.07 1006.69 1006.74 1006.68 1006.57 1006.49 1006.50 1006.42 1006.69 1007.45 1008.15 1008.51 1009.16 1009.63 1009.93 1010.36 1010.71 1010.64 1010.62 1010.61 1010.58 1010.59 1010.86 1011.10 1011.31 1011.52 1011.67 1011.83 1011.95 1012.05 1012.19 1012.27 1012.34 1012.50 1012.60 1012.60 1012.51 1012.65 1012.90 1012.99
1008.88 1008.64 1008.30 1008.14 1007.99 1007.54 1007.19 1006.93 1007.27 1007.60 1007.46 1007.23 1006.89 1006.70 1006.73 1006.79 1006.83 1006.69 1006.59 1006.64 1006.57 1006.52 1006.82 1007.24 1008.19 1008.81 1009.52 1009.57 1009.85 1010.04 1010.01 1010.23 1010.38 1010.27 1010.29 1010.51 1010.90 1011.25 1011.41 1011.59 1011.71 1011.86 1011.93 1011.99 1012.10 1012.18 1012.26 1012.34 1012.47 1012.36 1012.19 1012.24 1012.40 1012.49
1008.61 1008.51 1008.22 1008.11 1007.72 1007.33 1007.36 1007.46 1007.48 1007.42 1006.99 1006.68 1006.60 1006.51 1006.47 1006.46 1006.37 1006.49 1006.59 1006.63 1006.66 1006.73 1007.35 1007.78 1008.53 1009.31 1009.71 1009.80 1009.98 1010.08 1009.97 1009.97 1009.96 1010.21 1010.29 1010.55 1010.80 1011.02 1011.17 1011.33 1011.49 1011.57 1011.67 1011.76 1011.85 1011.89 1011.95 1011.92 1012.01 1012.05 1011.97 1011.50 1011.43 1011.27
1008.47 1008.37 1008.17 1007.79 1007.14 1007.12 1007.25 1007.23 1007.09 1006.55 1006.51 1006.66 1006.58 1006.55 1006.37 1006.38 1006.53 1006.68 1006.63 1006.70 1006.74 1007.27 1007.66 1008.01 1008.56 1009.17 1009.37 1009.50 1009.90 1009.87 1010.03 1010.30 1010.44 1010.45 1010.54 1010.76 1010.83 1011.00 1011.15 1011.20 1011.39 1011.51 1011.56 1011.56 1011.59 1011.56 1011.57 1011.59 1011.56 1011.30 1011.10 1010.88 1010.79 1010.53
1008.22 1008.00 1007.76 1007.42 1007.17 1006.95 1006.93 1006.76 1006.49 1006.77 1006.95 1006.92 1006.65 1006.43 1006.49 1006.77 1006.78 1006.53 1006.31 1006.66 1006.96 1007.21 1007.61 1008.13 1008.47 1008.92 1009.12 1009.25 1009.45 1009.77 1010.12 1010.15 1010.37 1010.56 1010.64 1010.73 1010.84 1010.96 1011.13 1011.28 1011.33 1011.35 1011.34 1011.31 1011.17 1011.00 1010.86 1010.77 1010.65 1010.42 1010.19 1010.17 1010.03 1009.68
1007.75 1007.46 1007.32 1007.17 1007.01 1007.02 1007.09 1007.07 1006.85 1007.13 1007.34 1007.34 1006.85 1006.74 1006.96 1007.10 1006.99 1006.88 1006.94 1007.20 1007.26 1007.51 1008.00 1008.43 1008.81 1009.01 1009.08 1009.21 1009.39 1009.49 1009.76 1010.03 1010.23 1010.56 1010.62 1010.71 1010.83 1010.94 1010.88 1010.89 1010.86 1010.86 1010.89 1010.78 1010.65 1010.49 1010.33 1010.06 1009.78 1009.53 1009.29 1009.18 1009.05 1008.73
1007.52 1007.14 1007.05 1007.01 1006.92 1007.00 1007.38 1007.53 1007.49 1007.48 1007.36 1007.25 1007.26 1007.06 1007.48 1007.29 1007.60 1007.59 1007.67 1007.68 1007.77 1008.44 1008.78 1008.98 1009.09 1009.22 1009.33 1009.42 1009.49 1009.53 1009.66 1009.80 1009.95 1010.03 1010.18 1010.41 1010.40 1010.54 1010.47 1010.44 1010.57 1010.64 1010.66 1010.38 1010.16 1009.75 1009.73 1009.41 1008.91 1008.61 1008.44 1008.25 1007.94 1007.74
1007.27 1007.10 1007.33 1007.28 1007.29 1007.45 1007.71 1007.82 1007.70 1007.56 1007.49 1007.53 1007.39 1007.49 1007.77 1008.23 1008.34 1008.33 1008.31 1008.19 1008.57 1008.75 1008.73 1008.91 1009.12 1009.24 1009.40 1009.50 1009.57 1009.70 1009.71 1009.88 1010.00 1010.07 1010.16 1010.35 1010.23 1010.12 1010.01 1010.02 1010.15 1009.96 1009.87 1009.72 1009.49 1009.20 1008.82 1008.55 1008.33 1008.09 1007.89 1007.51 1007.24 1007.00
1007.21 1007.17 1007.27 1007.30 1007.64 1007.95 1008.29 1007.81 1007.81 1007.77 1007.88 1008.13 1007.91 1008.14 1008.62 1008.77 1008.74 1008.61 1008.83 1008.91 1008.87 1008.81 1008.89 1008.92 1008.99 1009.10 1009.21 1009.43 1009.57 1009.68 1009.81 1010.00 1010.07 1010.11 1010.07 1010.07 1010.13 1010.09 1010.09 1009.98 1009.91 1009.87 1009.48 1009.02 1008.97 1008.73 1008.40 1008.09 1007.87 1007.69 1007.29 1006.95 1006.67 1006.34
1007.09 1007.53 1007.96 1008.21 1008.25 1008.70 1008.49 1008.37 1008.25 1008.32 1008.35 1008.46 1008.73 1009.09 1009.23 1009.15 1008.90 1008.95 1009.14 1009.08 1008.84 1008.86 1009.01 1009.01 1009.16 1009.43 1009.67 1009.66 1009.68 1009.71 1009.93 1010.01 1010.13 1010.09 1010.05 1010.13 1009.98 1009.80 1009.81 1009.67 1009.47 1009.34 1009.21 1008.83 1008.60 1008.26 1008.01 1007.78 1007.55 1007.17 1006.86 1006.50 1006.11 1005.78
1007.60 1008.53 1008.68 1008.80 1008.71 1008.75 1008.89 1009.04 1009.07 1009.03 1009.43 1009.41 1009.48 1009.73 1009.71 1009.46 1009.49 1009.57 1009.51 1009.38 1009.20 1009.24 1009.29 1009.37 1009.43 1009.53 1009.72 1009.83 1009.96 1010.10 1010.22 1010.32 1010.34 1010.25 1009.95 1010.03 1010.01 1009.87 1009.61 1009.39 1009.17 1009.13 1008.92 1008.61 1008.33 1008.07 1007.75 1007.39 1007.04 1006.70 1006.31 1005.97 1005.48 1005.01
1008.27 1009.12 1009.09 1009.06 1009.05 1009.04 1009.28 1009.47 1009.57 1009.75 1009.75 1010.05 1010.16 1010.13 1009.94 1009.91 1010.07 1009.94 1009.73 1009.63 1009.56 1009.47 1009.45 1009.49 1009.57 1009.77 1009.91 1010.06 1010.20 1010.33 1010.54 1010.57 1010.52 1010.32 1010.06 1010.12 1010.17 1010.05 1009.61 1009.24 1008.82 1008.41 1008.61 1008.65 1008.35 1007.82 1007.34 1006.98 1006.60 1006.22 1005.76 1005.28 1004.83 1004.35
1009.09 1009.33 1009.17 1009.05 1009.02 1009.09 1009.58 1009.71 1009.82 1009.83 1010.11 1010.15 1010.19 1010.34 1010.37 1010.45 1010.40 1010.20 1009.80 1009.70 1009.69 1009.73 1009.79 1009.93 1009.92 1009.93 1010.06 1010.31 1010.51 1010.63 1010.61 1010.53 1010.46 1010.24 1009.95 1009.85 1009.66 1009.39 1009.34 1009.25 1008.92 1008.72 1008.58 1008.25 1007.94 1007.55 1007.06 1006.61 1006.23 1005.87 1005.43 1004.99 1004.61 1004.22
1009.22 1009.28 1009.37 1009.61 1009.46 1009.46 1009.81 1009.95 1010.02 1010.20 1010.21 1010.19 1010.31 1010.60 1010.60 1010.43 1010.57 1010.30 1010.07 1010.05 1009.98 1010.03 1010.35 1010.60 1010.65 1010.63 1010.67 1010.84 1010.91 1010.81 1010.54 1010.41 1010.15 1009.82 1009.57 1009.43 1009.17 1009.14 1009.24 1009.17 1008.93 1008.62 1008.33 1008.02 1007.70 1007.43 1007.09 1006.67 1006.22 1005.79 1005.35 1004.89 1004.46 1004.17
1009.29 1009.35 1009.51 1010.36 1010.07 1010.18 1010.38 1010.45 1010.55 1010.55 1010.52 1010.33 1010.49 1010.61 1010.75 1010.58 1010.61 1010.43 1010.33 1010.32 1010.49 1010.66 1010.94 1011.17 1011.35 1011.27 1011.19 1011.09 1010.94 1010.76 1010.54 1010.19 1009.93 1009.63 1009.40 1009.23 1009.20 1009.16 1009.24 1009.14 1008.89 1008.48 1008.23 1007.88 1007.58 1007.30 1006.99 1006.67 1006.32 1005.97 1005.64 1005.39 1005.03 1004.58
1009.77 1009.61 1010.06 1010.63 1010.88 1011.09 1011.09 1010.93 1010.91 1011.05 1011.02 1011.00 1010.98 1010.83 1010.78 1011.00 1011.29 1011.24 1011.11 1011.12 1011.25 1011.58 1011.73 1011.69 1011.55 1011.36 1011.17 1010.94 1010.67 1010.43 1010.23 1010.05 1009.94 1009.89 1009.63 1009.53 1009.54 1009.52 1009.34 1009.12 1008.79 1008.42 1008.10 1007.79 1007.59 1007.33 1007.07 1006.83 1006.52 1006.33 1006.09 1005.74 1005.39 1004.95
1010.16 1010.19 1010.68 1011.20 1011.53 1011.67 1011.72 1011.69 1011.62 1011.69 1011.85 1011.88 1011.91 1011.84 1012.05 1012.09 1011.80 1011.76 1011.81 1011.87 1011.81 1011.61 1011.47 1011.42 1011.28 1011.19 1011.10 1010.93 1010.72 1010.44 1010.21 1010.07 1010.04 1010.01 1009.99 1009.93 1009.76 1009.55 1009.32 1009.01 1008.71 1008.48 1008.30 1008.19 1008.07 1007.91 1007.71 1007.52 1007.39 1007.15 1006.84 1006.51 1006.18 1005.83
1010.72 1011.16 1011.39 1011.73 1012.15 1012.26 1012.31 1012.48 1012.65 1012.67 1012.73 1012.65 1012.86 1012.74 1012.58 1012.41 1012.42 1012.15 1011.93 1011.73 1011.61 1011.49 1011.47 1011.44 1011.36 1011.17 1011.05 1010.85 1010.73 1010.56 1010.39 1010.31 1010.18 1010.08 1010.07 1009.94 1009.71 1009.55 1009.35 1009.16 1009.04 1008.92 1008.82 1008.72 1008.71 1008.66 1008.53 1008.39 1008.23 1008.01 1007.75 1007.45 1007.08 1006.77
1011.77 1011.73 1012.07 1012.26 1012.57 1012.82 1013.05 1013.14 1013.34 1013.54 1013.60 1013.60 1013.39 1013.28 1013.08 1012.99 1012.65 1012.41 1011.98 1011.73 1011.71 1011.63 1011.61 1011.46 1011.22 1010.95 1010.75 1010.63 1010.62 1010.57 1010.52 1010.41 1010.27 1010.12 1010.03 1010.03 1010.05 1009.98 1009.83 1009.70 1009.58 1009.51 1009.48 1009.51 1009.51 1009.46 1009.37 1009.21 1009.13 1009.02 1008.80 1008.49 1008.17 1007.89
Thickness
5295 5289 5281 5274 5268 5263 5260 5260 5262 5265 5269 5273 5282 5294 5302 5310 5318 5318 5325 5324 5324 5337 5355 5366 5383 5390 5400 5406 5414 5432 5440 5449 5446 5457 5489 5500 5513 5527 5540 5552 5551 5561 5558 5562 5565 5576 5579 5596 5605 5610 5619 5613 5623 5621
5276 5270 5262 5257 5252 5249 5248 5251 5254 5259 5262 5271 5281 5291 5300 5308 5316 5320 5326 5331 5333 5338 5357 5366 5380 5389 5396 5396 5400 5412 5437 5457 5474 5465 5492 5508 5511 5521 5544 5541 5548 5551 5563 5566 5566 5579 5571 5577 5586 5594 5599 5609 5599 5599
5257 5250 5246 5241 5239 5240 5241 5244 5249 5255 5260 5271 5281 5290 5296 5306 5315 5323 5329 5334 5337 5341 5356 5368 5382 5391 5394 5397 5399 5404 5424 5442 5460 5477 5490 5502 5518 5515 5534 5541 5541 5541 5549 5547 5554 5549 5553 5560 5570 5577 5583 5586 5587 5584
5239 5235 5232 5231 5231 5233 5236 5240 5247 5255 5263 5272 5281 5289 5295 5306 5317 5330 5337 5344 5346 5353 5366 5381 5385 5389 5393 5395 5402 5409 5418 5428 5442 5464 5476 5488 5508 5498 5522 5536 5535 5536 5541 5538 5532 5538 5541 5543 5548 5557 5560 5561 5559 5556
5225 5224 5222 5224 5226 5230 5234 5240 5248 5257 5265 5275 5283 5290 5296 5308 5321 5329 5340 5348 5351 5358 5371 5377 5384 5390 5393 5397 5405 5414 5421 5427 5438 5458 5468 5468 5473 5488 5493 5514 5513 5518 5531 5544 5541 5543 5543 5529 5531 5539 5541 5537 5537 5536
5215 5216 5218 5220 5224 5229 5235 5242 5251 5260 5269 5277 5285 5293 5301 5313 5324 5332 5339 5355 5357 5357 5361 5377 5381 5386 5390 5395 5402 5413 5420 5418 5426 5437 5438 5448 5458 5470 5492 5498 5497 5508 5522 5537 5530 5524 5526 5516 5515 5517 5521 5520 5518 5519
5209 5213 5215 5219 5225 5230 5237 5245 5254 5264 5272 5281 5289 5297 5309 5318 5326 5332 5347 5355 5362 5360 5368 5379 5385 5382 5387 5396 5405 5410 5417 5422 5431 5427 5430 5436 5442 5456 5483 5488 5485 5497 5508 5505 5503 5507 5496 5501 5499 5498 5500 5498 5498 5497
5209 5214 5217 5221 5227 5234 5242 5250 5258 5267 5275 5284 5294 5304 5314 5325 5334 5341 5346 5359 5365 5368 5372 5381 5386 5386 5386 5393 5409 5404 5413 5421 5421 5417 5419 5426 5431 5442 5447 5460 5473 5483 5489 5488 5486 5492 5493 5485 5482 5481 5481 5482 5483 5482
5211 5217 5221 5225 5232 5239 5246 5254 5262 5270 5279 5290 5300 5310 5319 5326 5333 5345 5354 5360 5365 5369 5374 5381 5394 5391 5390 5389 5398 5408 5408 5415 5409 5418 5420 5428 5438 5443 5432 5440 5458 5465 5474 5467 5467 5471 5472 5473 5470 5468 5469 5468 5471 5467
5216 5220 5225 5231 5237 5243 5250 5258 5265 5274 5284 5295 5307 5314 5325 5334 5345 5352 5354 5357 5362 5371 5370 5383 5382 5394 5393 5394 5398 5402 5399 5403 5410 5407 5413 5426 5429 5424 5432 5441 5447 5448 5453 5459 5458 5455 5454 5455 5456 5456 5459 5458 5457 5456
5220 5225 5231 5237 5242 5249 5256 5263 5270 5278 5291 5300 5308 5320 5333 5340 5345 5349 5359 5368 5369 5377 5381 5384 5386 5393 5389 5403 5398 5397 5405 5406 5415 5407 5420 5413 5423 5423 5426 5432 5433 5440 5444 5446 5449 5450 5451 5453 5449 5444 5442 5440 5439 5437
5226 5231 5236 5242 5247 5254 5262 5269 5275 5282 5294 5305 5317 5327 5333 5339 5343 5354 5357 5359 5371 5392 5381 5393 5395 5394 5390 5392 5404 5397 5403 5409 5412 5399 5418 5416 5416 5415 5418 5423 5423 5427 5430 5431 5430 5432 5432 5432 5430 5428 5426 5425 5425 5423
5232 5237 5243 5249 5256 5264 5271 5277 5282 5289 5298 5311 5321 5330 5338 5335 5340 5360 5347 5368 5372 5382 5385 5391 5395 5394 5394 5396 5394 5398 5394 5391 5392 5388 5401 5407 5405 5407 5411 5415 5417 5418 5420 5422 5421 5420 5418 5418 5414 5413 5414 5413 5412 5410
5238 5243 5250 5258 5266 5274 5281 5286 5292 5298 5303 5320 5333 5337 5346 5343 5358 5374 5383 5391 5393 5395 5392 5393 5386 5391 5386 5392 5388 5392 5382 5387 5388 5386 5401 5398 5404 5407 5405 5406 5410 5410 5410 5410 5409 5408 5407 5405 5405 5404 5402 5401 5397 5398
5246 5252 5259 5266 5275 5283 5292 5305 5308 5307 5315 5331 5338 5346 5350 5364 5364 5369 5374 5384 5385 5393 5393 5389 5385 5386 5378 5379 5385 5388 5386 5392 5400 5402 5400 5398 5400 5401 5401 5399 5401 5400 5397 5398 5398 5398 5397 5397 5397 5396 5395 5393 5390 5387
5254 5260 5267 5273 5280 5290 5301 5309 5311 5315 5323 5335 5344 5353 5353 5361 5364 5370 5379 5383 5384 5389 5389 5390 5382 5386 5382 5388 5390 5397 5410 5401 5406 5399 5398 5400 5399 5397 5398 5395 5394 5393 5393 5393 5392 5390 5389 5381 5379 5387 5384 5381 5378 5377
5260 5265 5272 5278 5287 5298 5305 5311 5316 5325 5337 5346 5351 5354 5358 5367 5376 5377 5380 5385 5381 5393 5387 5384 5380 5386 5378 5387 5398 5392 5402 5405 5402 5398 5400 5401 5401 5400 5398 5396 5394 5393 5392 5391 5389 5387 5385 5383 5375 5377 5377 5384 5379 5378
5266 5272 5278 5288 5297 5304 5309 5314 5323 5337 5347 5346 5355 5359 5362 5366 5371 5375 5377 5378 5387 5383 5384 5394 5385 5392 5388 5407 5391 5396 5394 5390 5393 5399 5400 5398 5398 5397 5395 5396 5392 5390 5388 5386 5384 5381 5379 5377 5377 5378 5377 5376 5373 5372
5274 5281 5288 5296 5303 5310 5317 5325 5332 5338 5340 5345 5353 5359 5364 5365 5369 5374 5381 5380 5381 5384 5386 5390 5398 5400 5401 5398 5399 5393 5393 5397 5400 5397 5398 5397 5396 5395 5392 5390 5388 5387 5385 5383 5383 5382 5380 5378 5375 5374 5373 5369 5368 5369
5283 5290 5297 5303 5309 5315 5319 5325 5330 5335 5341 5347 5354 5362 5361 5365 5369 5375 5381 5383 5389 5392 5393 5395 5399 5398 5400 5398 5396 5399 5398 5396 5398 5398 5398 5395 5392 5390 5391 5389 5388 5386 5383 5381 5378 5371 5374 5373 5371 5368 5366 5364 5363 5363
5289 5297 5303 5309 5315 5320 5322 5325 5330 5336 5343 5351 5352 5360 5362 5367 5370 5377 5382 5382 5391 5387 5391 5388 5389 5388 5389 5392 5394 5397 5397 5397 5400 5401 5400 5396 5393 5389 5388 5387 5383 5379 5375 5375 5374 5374 5366 5366 5366 5364 5361 5360 5359 5356
5295 5301 5305 5311 5316 5319 5323 5326 5334 5339 5348 5350 5357 5359 5365 5364 5368 5372 5374 5385 5385 5388 5388 5388 5389 5391 5392 5395 5396 5395 5396 5393 5391 5390 5383 5382 5389 5389 5388 5384 5379 5379 5375 5371 5368 5366 5366 5362 5358 5355 5352 5352 5350 5349
5301 5306 5310 5315 5319 5320 5325 5329 5340 5343 5351 5349 5358 5364 5360 5363 5366 5368 5371 5377 5382 5382 5383 5387 5388 5388 5391 5390 5391 5391 5389 5387 5386 5385 5384 5382 5380 5377 5375 5372 5368 5365 5365 5366 5360 5355 5353 5350 5347 5344 5345 5344 5343 5341
5306 5307 5306 5308 5317 5316 5323 5327 5336 5342 5348 5351 5356 5355 5357 5362 5366 5369 5376 5377 5381 5377 5380 5384 5385 5384 5383 5384 5385 5385 5383 5380 5378 5376 5373 5372 5373 5373 5368 5365 5362 5357 5353 5352 5348 5344 5342 5339 5337 5339 5337 5336 5335 5333
5309 5304 5305 5307 5314 5317 5316 5320 5330 5338 5336 5338 5345 5343 5349 5356 5358 5358 5371 5371 5374 5376 5378 5378 5378 5378 5380 5378 5374 5374 5370 5369 5369 5368 5367 5363 5361 5360 5359 5356 5353 5347 5342 5339 5336 5333 5332 5331 5331 5330 5330 5328 5329 5329
5300 5294 5305 5305 5309 5321 5321 5320 5313 5322 5327 5331 5337 5343 5349 5353 5353 5362 5365 5367 5368 5371 5370 5371 5373 5371 5370 5367 5366 5365 5360 5357 5356 5357 5356 5351 5347 5344 5344 5344 5345 5346 5335 5325 5323 5324 5326 5327 5327 5326 5326 5326 5326 5326
5292 5293 5311 5315 5322 5327 5320 5325 5331 5328 5321 5328 5334 5334 5341 5345 5350 5356 5360 5361 5365 5363 5363 5362 5364 5365 5363 5358 5354 5351 5350 5348 5348 5348 5346 5342 5339 5337 5333 5330 5329 5326 5322 5321 5320 5320 5321 5322 5322 5321 5321 5320 5320 5319
5297 5306 5300 5308 5313 5324 5312 5315 5317 5324 5330 5336 5337 5334 5343 5341 5346 5350 5352 5353 5355 5355 5352 5349 5348 5348 5347 5344 5342 5341 5341 5339 5338 5339 5338 5335 5332 5327 5322 5318 5316 5315 5314 5313 5313 5312 5312 5313 5314 5314 5315 5316 5317 5315
5302 5308 5310 5289 5297 5312 5315 5312 5319 5326 5330 5336 5333 5331 5335 5343 5342 5346 5347 5347 5345 5344 5342 5339 5335 5335 5335 5334 5332 5331 5330 5332 5332 5331 5330 5327 5321 5317 5311 5309 5307 5308 5308 5307 5307 5307 5307 5307 5307 5308 5308 5307 5306 5306
5299 5306 5297 5288 5294 5308 5315 5318 5322 5321 5324 5326 5329 5335 5339 5335 5331 5332 5334 5334 5332 5328 5327 5328 5329 5330 5330 5328 5327 5325 5321 5319 5317 5315 5316 5314 5310 5305 5303 5302 5303 5303 5304 5304 5303 5302 5302 5301 5301 5301 5301 5301 5301 5302
5296 5301 5300 5303 5306 5308 5308 5309 5311 5314 5310 5313 5309 5321 5324 5321 5323 5325 5325 5324 5325 5327 5328 5327 5326 5323 5320 5317 5315 5314 5312 5308 5305 5303 5300 5299 5298 5298 5298 5300 5301 5301 5300 5298 5296 5295 5295 5295 5293 5293 5293 5293 5293 5293
5296 5286 5291 5288 5299 5299 5294 5300 5302 5304 5304 5309 5312 5307 5311 5317 5319 5319 5321 5323 5324 5324 5322 5318 5315 5313 5310 5309 5306 5303 5301 5298 5296 5296 5294 5295 5296 5296 5297 5297 5296 5295 5294 5292 5290 5288 5287 5286 5286 5285 5287 5286 5285 5284
5282 5293 5287 5287 5286 5293 5292 5295 5295 5295 5296 5306 5313 5309 5315 5312 5308 5313 5315 5316 5315 5314 5312 5310 5310 5309 5308 5306 5303 5299 5297 5296 5295 5295 5295 5294 5292 5292 5292 5292 5292 5290 5288 5285 5283 5282 5281 5280 5279 5278 5276 5276 5275 5274